Location: Kings Park
(40.8862°N, 73.2573°W)
Time: 05:46:20
(UTC+00:00)

CORIOLIS - Pass Details

Date: 29 October 2020
Orbit: 819 x 838 km, 98.7° (Epoch: 27 November)

Event Time Altitude Azimuth Distance (km) Brightness Sun altitude
Rises 22:30:47 0° 167° (SSE) 3,333 7.3 -7.9°
Reaches altitude 10° 22:33:07 10° 168° (SSE) 2,406 6.6 -8.3°
Maximum altitude 22:38:27 81° 257° (WSW) 834 4.3 -9.3°
Drops below altitude 10° 22:43:50 10° 345° (NNW) 2,428 6.7 -10.3°
Sets 22:46:12 0° 346° (NNW) 3,368 7.4 -10.8°
